Location: Almond
(33.8589°N, 117.9848°W)
Time: 13:34:16
(UTC+00:00)

Daily predictions for brighter satellites

Satellite Brightness Start Highest point End
(mag) Time Altitude Azimuth Time Altitude Azimuth Time Altitude Azimuth
ARGOS Delta rocket 4.4 12:05:21 10° NNE 12:10:25 60° E 12:15:10 10° S
NOSS 3-4 (A) 3.6 12:11:28 31° S 12:14:13 63° ESE 12:20:11 10° NE
NOSS 3-4 (C) 3.7 12:11:25 29° S 12:14:21 62° ESE 12:20:19 10° NE
GPS 2-04 Rocket1 4.1 12:21:20 36° ESE 12:21:20 36° ESE 12:23:53 10° E
Cosmos 1606 3.6 12:29:46 43° NE 12:30:17 46° E 12:33:55 10° SSE
Cosmos 2263 Rocket 2.0 12:29:11 42° SSW 12:31:12 80° WNW 12:36:54 10° NNE
Cosmos 1386 Rocket 4.4 12:26:23 10° SSW 12:32:42 64° W 12:39:02 10° N
ATLAS 2AS CENTAUR R/B 3.2 12:25:41 10° SSW 12:33:30 72° ESE 12:41:25 10° NE
CENTAUR R/B 3.9 12:27:26 14° NNW 12:34:36 51° NE 12:43:11 10° SE
USA 234 3.6 12:31:14 10° NE 12:37:43 63° SE 12:44:10 10° SSW
deb Chang Zheng 4 3.7 12:35:11 10° NNE 12:39:31 75° ESE 12:43:51 10° S
H-2A R/B 4.3 12:36:11 10° S 12:36:44 13° SSW 12:36:44 13° SSW
FALCON 9 DEB 4.3 12:41:02 37° SE 12:41:02 37° SE 12:44:02 10° ENE
Delta 2 Rocket 3.5 12:42:32 69° WNW 12:43:07 90° ESE 12:47:34 10° ESE
Meteor 1-31 Rocket 3.0 12:40:58 10° N 12:45:38 54° SSW 12:48:37 10° SSW
Cosmos 773 Rocket 3.9 12:44:16 33° NNW 12:46:44 83° WSW 12:51:57 10° SSE
NOSS 3-2 (A) 4.1 12:43:27 21° NNW 12:49:16 89° ENE 12:57:59 10° SSE
Nadezhda 1 Rocket 4.0 12:45:40 12° NNW 12:51:31 57° W 12:57:36 10° SSW
Lacrosse 5 1.8 12:49:39 22° SW 12:53:00 88° SE 12:58:06 10° NE
Cosmos 1603 4.2 12:50:54 11° NNW 12:56:20 60° ENE 13:01:53 10° SSE
ALOS 3.6 12:52:14 10° N 13:00:20 14° SW 13:01:00 10° SW
Lacrosse 4 Rocket 3.8 12:56:35 10° N 12:59:54 21° ENE 13:03:15 10° ESE
FENGYUN 3A 3.9 12:56:25 10° N 13:01:28 42° WNW 13:06:30 10° SW
USA 238 DEB 3.8 12:58:32 17° NNW 13:04:26 84° WSW 13:12:03 10° SSE
USA 238 3.8 12:58:37 17° NNW 13:04:32 84° WSW 13:12:08 10° SSE
CZ-4B R/B 1.3 13:01:38 10° S 13:04:31 54° SW 13:04:31 54° SW
Cosmos 1943 3.6 13:00:59 10° NNW 13:06:39 64° ENE 13:12:17 10° SSE
Cosmos 1461 4.2 13:05:30 11° NNW 13:09:44 42° ENE 13:13:59 10° SE
FALCON 9 DEB 2.9 13:08:39 33° SW 13:09:56 83° SE 13:13:08 10° NE
Cosmos 1151 Rocket 3.4 13:05:51 10° N 13:10:05 64° E 13:14:19 10° SSE
Cosmos 489 Rocket 4.4 13:04:33 10° NNW 13:10:53 77° WSW 13:17:11 10° S
Cosmos 1633 2.5 13:08:29 10° SSW 13:11:56 54° W 13:15:23 10° N
FALCON 9 DEB 2.8 13:11:55 35° SW 13:13:07 81° NW 13:16:19 10° NE
OAO 2 Rocket 3.3 13:11:59 25° WSW 13:14:56 86° SSE 13:20:07 10° E
CZ-4B R/B 3.0 13:11:11 10° N 13:15:40 72° WNW 13:20:01 10° SSW
ADEOS 4.1 13:11:18 10° N 13:15:56 33° WNW 13:20:32 10° SW
Milstar 3 Cent rocket 4.0 13:10:23 18° WSW 13:16:35 66° S 13:33:05 10° E
SAR-Lupe-4 3.4 13:13:40 10° S 13:17:13 82° WSW 13:20:48 10° NNW
Cosmos 1328 Rocket 3.8 13:14:15 10° N 13:18:40 71° E 13:23:04 10° SSE
Atlas Centaur 2 2.9 13:13:27 12° WSW 13:18:47 44° S 13:23:25 10° E
Okean 3 Rocket 3.9 13:18:48 10° SSW 13:22:53 40° W 13:27:01 10° N
SJ 16-02 1.6 13:21:17 10° SW 13:25:28 43° WNW 13:29:43 10° N
Cosmos 1766 Rocket 4.0 13:22:41 10° SSW 13:26:52 39° W 13:31:05 10° N
PSLV R/B 3.9 13:23:33 10° SSE 13:27:42 88° E 13:31:52 10° NNW
YAOGAN 6 4.0 13:24:45 10° NNE 13:28:04 39° E 13:31:20 10° S
Meteor 2-17 Rocket 4.3 13:22:44 10° SSW 13:28:45 72° W 13:34:47 10° N
MOS 1 Rocket 4.4 13:25:19 10° SSE 13:29:41 46° ENE 13:34:21 10° N
Cosmos 1184 Rocket 3.4 13:28:14 10° SW 13:31:12 32° WNW 13:34:12 10° NNW
Cosmos 1743 Rocket 4.4 13:27:10 10° S 13:31:28 55° E 13:35:50 10° NNE
FALCON 9 DEB 3.1 13:29:47 18° WSW 13:31:57 51° NW 13:35:06 10° NE
COSMO-SKYMED 1 2.6 13:28:11 10° S 13:32:26 57° W 13:36:43 10° NNW
H-2A R/B 2.7 13:29:12 10° N 13:33:07 84° WNW 13:36:58 10° SSW
CZ-4C R/B 1.8 13:29:27 10° SW 13:34:05 69° WNW 13:39:31 10° NNE
SAR-Lupe-1 4.3 13:30:54 10° S 13:34:20 48° W 13:37:49 10° NNW
USA 276 3.9 13:33:43 17° WSW 13:34:31 18° SW 13:36:45 10° S
OAO 1 Rocket 4.4 13:30:24 15° W 13:34:46 88° N 13:40:05 10° E
ERS-2 3.3 13:33:11 10° SSW 13:36:04 22° W 13:37:27 18° WNW
Cosmos 1408 Rocket 3.6 13:32:01 10° SSW 13:36:25 60° W 13:40:50 10° N
Cosmos 1538 Rocket 4.3 13:32:05 10° NNW 13:37:10 46° WSW 13:42:09 10° S
ASTRO E2 3.1 13:35:42 16° W 13:38:42 55° S 13:42:35 10° ESE
Cosmos 1862 4.0 13:38:41 10° S 13:42:39 60° E 13:46:39 10° NNE
Cosmos 158 Rocket 4.0 13:41:24 10° NNW 13:46:19 81° ENE 13:51:19 10° SSE
OAO 3 Rocket 3.6 13:42:38 14° W 13:46:30 50° SSW 13:51:04 10° SE
NOSS 7 (H) 4.4 13:42:48 10° SSW 13:46:51 79° WNW 13:50:00 10° NNE
Cosmos 2181 Rocket 4.1 13:40:52 10° NNW 13:46:53 55° W 13:52:49 10° SSW
BREEZE M DEB (TANK) 3.4 13:35:51 10° SW 13:48:22 64° NW 13:51:54 10° NE
Cosmos 1844 Rocket 2.7 13:45:38 10° SSW 13:51:16 84° WNW 13:56:57 10° NNE
ATLAS 3B R/B 3.9 13:44:45 10° NNW 13:51:19 41° NE 13:58:05 10° ESE
SMAP 4.1 13:46:50 10° NNE 13:51:23 51° E 13:55:53 10° S
Cosmos 1844 3.8 13:47:40 10° SSW 13:53:12 80° ESE 13:58:46 10° NNE
Cosmos 2154 Rocket 4.2 13:47:14 10° S 13:53:24 77° E 13:59:38 10° N
Cosmos 1689 Rocket 3.0 13:51:05 10° SSW 13:53:35 27° W 13:56:04 10° NW
Cosmos 1898 Rocket 3.6 13:51:00 10° SSW 13:56:10 56° WNW 14:01:25 10° N
Meteor 1-26 Rocket 4.5 13:50:54 10° NNW 13:56:25 49° W 14:01:45 10° SSW
CZ-4B DEB 4.2 13:51:04 10° N 13:56:32 81° WNW 14:02:00 10° SSW
GPS 2-04 Rocket1 2.6 13:55:45 10° W 13:59:36 71° N 14:03:17 10° ENE
ATLAS CENTAUR R/B 3.8 14:01:56 10° NNE 14:04:26 16° NE 14:06:59 10° E
CZ-3A R/B 4.4 14:02:28 10° WSW 14:06:31 42° S 14:26:44 10° ESE
PSLV R/B 4.3 14:03:04 10° N 14:06:39 37° WNW 14:10:08 10° SW
Cosmos 2084 4.3 14:04:52 10° NW 14:08:59 36° WSW 14:13:05 10° S
Cosmos 2228 Rocket 3.5 14:04:50 10° N 14:09:14 68° E 14:13:35 10° SSE
Chunghua 1 4.4 14:07:04 10° W 14:10:43 84° N 14:14:22 10° E
Envisat 3.1 14:07:09 10° N 14:12:06 54° WNW 14:17:01 10° SSW
